Darstellungsparameter: Aktuell verwendete Einstellungen:
Skalierung der Graphiken ... ?
xyx+y,   Skalierungsfaktor:      Skalierung: Modus: x, Faktor: 1
Darstellungszeitraum ... ?
Vom - - bis: - -   Zeitraum: 29.03.2020 - 02.04.2020
Min/Max/Avg-Anzeige ... ?
Zeige MMA aktuell
Zeige MMA Monat
Zeige MMA alles
Zeige --A aktuell
Zeige --A Monat
Zeige --A alles
Keine MMA-Anzeige
MMA:
Keine MMA-Graphiken
MMA-Basis: 29.03.2020 - 02.04.2020
Quicknavigation für Darstellung... ?
Tage:      1T, 2T, 3T, 5T -1T -2T -3T -5T +1T +2T +3T +5T
Wochen: 1W, 2W, 3W -1W -2W -3W +1W +2W +3W
Monate: 1M, 3M, 6M -1M -3M -6M +1M +3M +6M
Jahre:    1J, 3J, 5J, 10J -1J -3J -5J -10J +1J +3J +5J +10J
Nutze für die Darstellung ... ?
Originaldaten oder Mittelwerte auf ...
Stundenbasis Tagesbasis Wochenbasis
Monatsbasis Jahresbasis      Datenbasis: Original-Daten
Darstellen als:
Statistik (Auto) Statistik J:M      Darstellung:
Zur Graphik,    zurück zur Übersicht aller Sensoren.
 
Tabellarische Datenbersicht: ?
 
Sensor: Nr:Datum:Temp:Feuchte:
Aussen-T/F 1 29-03-2020 00:00:18 6.5 C 33 %
2 29-03-2020 00:10:18 6.4 C 33 %
3 29-03-2020 00:20:17 6.2 C 33 %
4 29-03-2020 00:30:17 6.5 C 33 %
5 29-03-2020 00:40:17 6.6 C 33 %
6 29-03-2020 00:50:18 6.5 C 32 %
7 29-03-2020 01:00:18 6.3 C 32 %
8 29-03-2020 01:10:18 6.3 C 32 %
9 29-03-2020 01:20:17 6.2 C 32 %
10 29-03-2020 01:30:17 6.1 C 32 %
11 29-03-2020 01:40:17 6 C 31 %
12 29-03-2020 01:50:17 6 C 31 %
13 29-03-2020 02:00:17 5.8 C 31 %
14 29-03-2020 02:10:17 5.7 C 31 %
15 29-03-2020 02:20:18 5.4 C 31 %
16 29-03-2020 02:30:18 5 C 31 %
17 29-03-2020 02:40:18 4.7 C 32 %
18 29-03-2020 02:50:18 4.7 C 32 %
19 29-03-2020 04:00:18 4.6 C 31 %
20 29-03-2020 04:10:18 4.2 C 32 %
21 29-03-2020 04:20:17 4.1 C 31 %
22 29-03-2020 04:30:17 4.3 C 31 %
23 29-03-2020 04:40:17 4.4 C 31 %
24 29-03-2020 04:50:18 4.3 C 31 %
25 29-03-2020 05:00:17 4.4 C 32 %
Sensor: Nr:Datum:Temp:Feuchte:
Aussen-T/F 26 29-03-2020 05:10:17 4.3 C 32 %
27 29-03-2020 05:20:17 4.2 C 31 %
28 29-03-2020 05:30:17 4 C 31 %
29 29-03-2020 05:40:17 3.8 C 32 %
30 29-03-2020 05:50:18 3.5 C 32 %
31 29-03-2020 06:00:18 3.1 C 32 %
32 29-03-2020 06:10:18 2.8 C 33 %
33 29-03-2020 06:20:17 2.5 C 33 %
34 29-03-2020 06:30:18 2.9 C 33 %
35 29-03-2020 06:40:18 3.2 C 32 %
36 29-03-2020 06:50:17 3.3 C 33 %
37 29-03-2020 07:00:18 3.4 C 33 %
38 29-03-2020 07:10:18 3.5 C 34 %
39 29-03-2020 07:20:17 3.5 C 35 %
40 29-03-2020 07:30:17 3.6 C 35 %
41 29-03-2020 07:40:17 3.7 C 35 %
42 29-03-2020 07:50:17 3.7 C 35 %
43 29-03-2020 08:00:18 3.8 C 35 %
44 29-03-2020 08:10:18 3.8 C 35 %
45 29-03-2020 08:20:17 4.1 C 33 %
46 29-03-2020 08:30:17 4.1 C 33 %
47 29-03-2020 08:40:17 4.3 C 33 %
48 29-03-2020 08:50:17 4 C 33 %
49 29-03-2020 09:00:17 4.3 C 33 %
50 29-03-2020 09:10:17 4.2 C 32 %
Sensor: Nr:Datum:Temp:Feuchte:
Aussen-T/F 51 29-03-2020 09:20:17 4.1 C 33 %
52 29-03-2020 09:30:17 4.2 C 33 %
53 29-03-2020 09:40:17 4.5 C 32 %
54 29-03-2020 09:50:17 4.8 C 32 %
55 29-03-2020 10:00:17 5 C 31 %
56 29-03-2020 10:10:17 5.3 C 31 %
57 29-03-2020 10:20:17 5.8 C 30 %
58 29-03-2020 10:30:18 5.6 C 30 %
59 29-03-2020 10:40:18 6.2 C 30 %
60 29-03-2020 10:50:17 6.2 C 28 %
61 29-03-2020 11:00:18 6.5 C 25 %
62 29-03-2020 11:10:18 6.5 C 25 %
63 29-03-2020 11:20:18 6 C 25 %
64 29-03-2020 11:30:18 6.1 C 25 %
65 29-03-2020 11:40:18 6.2 C 25 %
66 29-03-2020 11:50:17 6.3 C 25 %
67 29-03-2020 12:00:17 6.2 C 25 %
68 29-03-2020 12:10:17 5.6 C 27 %
69 29-03-2020 12:20:17 5.5 C 27 %
70 29-03-2020 12:30:17 5.7 C 27 %
71 29-03-2020 12:40:17 5.8 C 26 %
72 29-03-2020 12:50:18 6.4 C 26 %
73 29-03-2020 13:00:18 6.3 C 25 %
74 29-03-2020 13:10:18 6.1 C 25 %
75 29-03-2020 13:20:17 6.6 C 23 %
Sensor: Nr:Datum:Temp:Feuchte:
Aussen-T/F 76 29-03-2020 13:30:17 6.8 C 20 %
77 29-03-2020 13:40:18 8.1 C 20 %
78 29-03-2020 13:50:17 8.4 C 20 %
79 29-03-2020 14:00:18 7.6 C 20 %
80 29-03-2020 14:10:18 7.5 C 20 %
81 29-03-2020 14:20:17 7 C 20 %
82 29-03-2020 14:30:17 6.7 C 20 %
83 29-03-2020 14:40:17 6.5 C 20 %
84 29-03-2020 14:50:17 6.7 C 20 %
85 29-03-2020 15:00:17 7.2 C 20 %
86 29-03-2020 15:10:17 7.4 C 20 %
87 29-03-2020 15:20:17 7.4 C 20 %
88 29-03-2020 15:30:18 7.6 C 20 %
89 29-03-2020 15:40:18 7.6 C 20 %
90 29-03-2020 15:50:17 8 C 20 %
91 29-03-2020 16:00:18 7.4 C 20 %
92 29-03-2020 16:10:18 7 C 20 %
93 29-03-2020 16:20:17 6.7 C 20 %
94 29-03-2020 16:30:18 6.5 C 20 %
95 29-03-2020 16:40:18 6.6 C 20 %
96 29-03-2020 16:50:18 6.8 C 20 %
97 29-03-2020 17:00:18 7 C 20 %
98 29-03-2020 17:10:18 6.8 C 20 %
99 29-03-2020 17:20:17 7.4 C 20 %
100 29-03-2020 17:30:17 7 C 20 %
Sensor: Nr:Datum:Temp:Feuchte:
Aussen-T/F 101 29-03-2020 17:40:17 7 C 20 %
102 29-03-2020 17:50:18 6.8 C 25 %
103 29-03-2020 18:00:18 7.1 C 23 %
104 29-03-2020 18:10:18 6.5 C 25 %
105 29-03-2020 18:20:18 6.2 C 25 %
106 29-03-2020 18:30:18 5.3 C 29 %
107 29-03-2020 18:40:18 4.4 C 35 %
108 29-03-2020 18:50:18 4.1 C 36 %
109 29-03-2020 19:00:18 4 C 36 %
110 29-03-2020 19:10:18 3.6 C 39 %
111 29-03-2020 19:20:17 3.6 C 40 %
112 29-03-2020 19:30:17 3.4 C 40 %
113 29-03-2020 19:40:17 3.2 C 41 %
114 29-03-2020 19:50:17 3.1 C 41 %
115 29-03-2020 20:00:17 3 C 41 %
116 29-03-2020 20:10:17 3 C 41 %
117 29-03-2020 20:20:18 2.9 C 42 %
118 29-03-2020 20:30:18 3 C 41 %
119 29-03-2020 20:40:18 3.3 C 40 %
120 29-03-2020 20:50:18 3.5 C 40 %
121 29-03-2020 21:00:18 3.6 C 39 %
122 29-03-2020 21:10:18 3.7 C 39 %
123 29-03-2020 21:20:18 3.7 C 38 %
124 29-03-2020 21:30:17 3.7 C 37 %
125 29-03-2020 21:40:17 3.8 C 37 %
Sensor: Nr:Datum:Temp:Feuchte:
Aussen-T/F 126 29-03-2020 21:50:17 3.8 C 37 %
127 29-03-2020 22:00:17 3.7 C 37 %
128 29-03-2020 22:10:17 3.7 C 36 %
129 29-03-2020 22:20:18 3.7 C 36 %
130 29-03-2020 22:30:18 3.6 C 36 %
131 29-03-2020 22:40:18 3.6 C 36 %
132 29-03-2020 22:50:18 3.6 C 35 %
133 29-03-2020 23:00:18 3.6 C 35 %
134 29-03-2020 23:10:18 3.5 C 35 %
135 29-03-2020 23:20:17 3.4 C 34 %
136 29-03-2020 23:30:17 3.3 C 33 %
137 29-03-2020 23:40:17 3.1 C 33 %
138 29-03-2020 23:50:17 2.9 C 33 %
139 30-03-2020 00:00:18 2.5 C 34 %
140 30-03-2020 00:10:18 2.4 C 33 %
141 30-03-2020 00:20:17 2.4 C 33 %
142 30-03-2020 00:30:17 1.7 C 35 %
143 30-03-2020 00:40:17 1 C 36 %
144 30-03-2020 00:50:17 0.3 C 38 %
145 30-03-2020 01:00:18 0.2 C 38 %
146 30-03-2020 01:10:18 0.3 C 38 %
147 30-03-2020 01:20:17 0.3 C 37 %
148 30-03-2020 01:30:18 0.5 C 36 %
149 30-03-2020 01:40:18 -0.1 C 37 %
150 30-03-2020 01:50:17 -0.3 C 37 %
Sensor: Nr:Datum:Temp:Feuchte:
Aussen-T/F 151 30-03-2020 02:00:17 -0.8 C 38 %
152 30-03-2020 02:10:17 -0.9 C 38 %
153 30-03-2020 02:20:17 -1.5 C 39 %
154 30-03-2020 02:30:18 -1.7 C 39 %
155 30-03-2020 02:40:18 -1.6 C 40 %
156 30-03-2020 02:50:17 -1.6 C 39 %
157 30-03-2020 03:00:18 -1.7 C 39 %
158 30-03-2020 03:10:18 -1.3 C 38 %
159 30-03-2020 03:20:18 -1.7 C 39 %
160 30-03-2020 03:30:18 -2.2 C 40 %
161 30-03-2020 03:40:18 -2.1 C 40 %
162 30-03-2020 03:50:17 -2.1 C 40 %
163 30-03-2020 04:00:18 -1.9 C 39 %
164 30-03-2020 04:10:18 -2.2 C 39 %
165 30-03-2020 04:20:17 -2 C 39 %
166 30-03-2020 04:30:17 -2.4 C 39 %
167 30-03-2020 04:40:17 -2.6 C 39 %
168 30-03-2020 04:50:17 -2.4 C 39 %
169 30-03-2020 05:00:17 -2.4 C 38 %
170 30-03-2020 05:10:17 -2.5 C 38 %
171 30-03-2020 05:20:17 -2.7 C 38 %
172 30-03-2020 05:30:18 -3 C 39 %
173 30-03-2020 05:40:18 -3 C 38 %
174 30-03-2020 05:50:17 -3 C 38 %
175 30-03-2020 06:00:18 -3 C 38 %
Sensor: Nr:Datum:Temp:Feuchte:
Aussen-T/F 176 30-03-2020 06:10:18 -3.4 C 38 %
177 30-03-2020 06:20:17 -3.7 C 39 %
178 30-03-2020 06:30:17 -3.9 C 40 %
179 30-03-2020 06:40:17 -4.1 C 40 %
180 30-03-2020 06:50:17 -3.3 C 39 %
181 30-03-2020 07:00:17 -3.7 C 40 %
182 30-03-2020 07:10:17 -3.2 C 39 %
183 30-03-2020 07:20:17 -3.8 C 39 %
184 30-03-2020 07:30:18 -4.3 C 40 %
185 30-03-2020 07:40:18 -4.5 C 40 %
186 30-03-2020 07:50:17 -4.5 C 40 %
187 30-03-2020 08:00:18 -3.8 C 40 %
188 30-03-2020 08:10:18 -3.9 C 40 %
189 30-03-2020 08:20:18 -4.1 C 40 %
190 30-03-2020 08:30:18 -3.7 C 39 %
191 30-03-2020 08:40:18 -3.3 C 39 %
192 30-03-2020 08:50:17 -3.2 C 38 %
193 30-03-2020 09:00:18 -3.1 C 38 %
194 30-03-2020 09:10:18 -2.7 C 37 %
195 30-03-2020 09:20:18 -2.6 C 37 %
196 30-03-2020 09:30:18 -2.5 C 37 %
197 30-03-2020 09:40:18 -2.1 C 37 %
198 30-03-2020 09:50:18 -2.1 C 37 %
199 30-03-2020 10:00:18 -1.6 C 36 %
200 30-03-2020 10:10:18 -1.7 C 37 %
Sensor: Nr:Datum:Temp:Feuchte:
Aussen-T/F 201 30-03-2020 10:20:17 -1.5 C 37 %
202 30-03-2020 10:30:17 -1.3 C 36 %
203 30-03-2020 10:40:17 0.1 C 31 %
204 30-03-2020 10:50:17 1 C 21 %
205 30-03-2020 11:00:17 1.1 C 23 %
206 30-03-2020 11:10:18 2 C 20 %
207 30-03-2020 11:20:18 2.4 C 20 %
208 30-03-2020 11:30:18 2.8 C 20 %
209 30-03-2020 11:40:18 2.9 C 20 %
210 30-03-2020 11:50:18 3.2 C 20 %
211 30-03-2020 12:00:18 3.7 C 20 %
212 30-03-2020 12:10:18 4 C 20 %
213 30-03-2020 12:20:18 6.4 C 20 %
214 30-03-2020 12:30:18 7.6 C 20 %
215 30-03-2020 12:40:18 6.3 C 20 %
216 30-03-2020 12:50:18 5.1 C 20 %
217 30-03-2020 13:00:18 6.6 C 20 %
218 30-03-2020 13:10:18 6.5 C 20 %
219 30-03-2020 13:20:18 5.6 C 20 %
220 30-03-2020 13:30:17 5.9 C 20 %
221 30-03-2020 13:40:17 7 C 20 %
222 30-03-2020 13:50:17 6.4 C 20 %
223 30-03-2020 14:00:17 7.1 C 20 %
224 30-03-2020 14:10:17 8.4 C 20 %
225 30-03-2020 14:20:18 8.9 C 20 %
Sensor: Nr:Datum:Temp:Feuchte:
Aussen-T/F 226 30-03-2020 14:30:18 9.5 C 20 %
227 30-03-2020 14:40:18 9.7 C 20 %
228 30-03-2020 14:50:18 10.8 C 20 %
229 30-03-2020 15:00:18 11.3 C 20 %
230 30-03-2020 15:10:18 11.7 C 20 %
231 30-03-2020 15:20:17 11.6 C 20 %
232 30-03-2020 15:30:18 13.5 C 20 %
233 30-03-2020 15:40:18 13.6 C 20 %
234 30-03-2020 15:50:18 11.9 C 20 %
235 30-03-2020 16:00:18 12.9 C 20 %
236 30-03-2020 16:10:18 13.6 C 20 %
237 30-03-2020 16:20:17 15.2 C 20 %
238 30-03-2020 16:30:18 9.9 C 20 %
239 30-03-2020 16:40:18 13.9 C 20 %
240 30-03-2020 16:50:18 13.6 C 20 %
241 30-03-2020 17:00:17 10.1 C 20 %
242 30-03-2020 17:10:17 13.4 C 20 %
243 30-03-2020 17:20:18 12.5 C 20 %
244 30-03-2020 17:30:18 12.6 C 20 %
245 30-03-2020 17:40:18 11.6 C 20 %
246 30-03-2020 17:50:18 10.2 C 20 %
247 30-03-2020 18:00:18 8.7 C 20 %
248 30-03-2020 18:10:18 7.6 C 20 %
249 30-03-2020 18:20:18 7.9 C 20 %
250 30-03-2020 18:30:18 8.2 C 20 %
Sensor: Nr:Datum:Temp:Feuchte:
Aussen-T/F 251 30-03-2020 18:40:18 7.7 C 20 %
252 30-03-2020 18:50:18 7.8 C 20 %
253 30-03-2020 19:00:18 7.3 C 20 %
254 30-03-2020 19:10:18 7.1 C 20 %
255 30-03-2020 19:20:17 6.5 C 20 %
256 30-03-2020 19:30:18 6.3 C 20 %
257 30-03-2020 19:40:18 5.8 C 20 %
258 30-03-2020 19:50:17 5 C 20 %
259 30-03-2020 20:00:18 3.8 C 27 %
260 30-03-2020 20:10:18 3 C 30 %
261 30-03-2020 20:20:17 2.8 C 30 %
262 30-03-2020 20:30:18 3.3 C 31 %
263 30-03-2020 20:40:18 3.2 C 30 %
264 30-03-2020 20:50:18 3.3 C 31 %
265 30-03-2020 21:00:18 4 C 29 %
266 30-03-2020 21:10:18 4.1 C 29 %
267 30-03-2020 21:20:18 4.2 C 30 %
268 30-03-2020 21:30:18 4.3 C 30 %
269 30-03-2020 21:40:18 4.2 C 30 %
270 30-03-2020 21:50:18 4.1 C 30 %
271 30-03-2020 22:00:18 3.7 C 32 %
272 30-03-2020 22:10:18 3.7 C 33 %
273 30-03-2020 22:20:17 3.9 C 32 %
274 30-03-2020 22:30:18 4 C 31 %
275 30-03-2020 22:40:18 4.1 C 31 %
Sensor: Nr:Datum:Temp:Feuchte:
Aussen-T/F 276 30-03-2020 22:50:18 4.2 C 31 %
277 30-03-2020 23:00:18 4.1 C 31 %
278 30-03-2020 23:10:18 4.2 C 30 %
279 30-03-2020 23:20:18 4.2 C 31 %
280 30-03-2020 23:30:18 4.1 C 31 %
281 30-03-2020 23:40:18 4.2 C 31 %
282 30-03-2020 23:50:17 4.2 C 31 %
283 31-03-2020 00:00:18 4.3 C 30 %
284 31-03-2020 00:10:18 4.3 C 30 %
285 31-03-2020 00:20:18 4.2 C 31 %
286 31-03-2020 00:30:18 4.2 C 31 %
287 31-03-2020 00:40:18 4.2 C 31 %
288 31-03-2020 00:50:18 4.3 C 31 %
289 31-03-2020 01:00:18 4.4 C 32 %
290 31-03-2020 01:10:18 4 C 34 %
291 31-03-2020 01:20:18 3.8 C 36 %
292 31-03-2020 01:30:18 3.8 C 36 %
293 31-03-2020 01:40:18 3.7 C 37 %
294 31-03-2020 01:50:18 4 C 37 %
295 31-03-2020 02:00:18 3.9 C 38 %
296 31-03-2020 02:10:18 3.4 C 39 %
297 31-03-2020 02:20:17 3.5 C 39 %
298 31-03-2020 02:30:18 3.7 C 39 %
299 31-03-2020 02:40:18 3.3 C 40 %
300 31-03-2020 02:50:18 2.8 C 41 %
Sensor: Nr:Datum:Temp:Feuchte:
Aussen-T/F 301 31-03-2020 03:00:18 2.5 C 41 %
302 31-03-2020 03:10:18 2.2 C 42 %
303 31-03-2020 03:20:17 2.4 C 42 %
304 31-03-2020 03:30:18 2.3 C 42 %
305 31-03-2020 03:40:18 2.3 C 43 %
306 31-03-2020 03:50:18 2.7 C 43 %
307 31-03-2020 04:00:18 2.9 C 42 %
308 31-03-2020 04:10:18 3 C 42 %
309 31-03-2020 04:20:18 3.1 C 42 %
310 31-03-2020 04:30:17 3.2 C 42 %
311 31-03-2020 04:40:18 3.2 C 41 %
312 31-03-2020 04:50:17 3.5 C 41 %
313 31-03-2020 05:00:18 3.4 C 41 %
314 31-03-2020 05:10:18 3 C 41 %
315 31-03-2020 05:20:17 2.8 C 43 %
316 31-03-2020 05:30:18 2.5 C 43 %
317 31-03-2020 05:40:18 2.3 C 43 %
318 31-03-2020 05:50:18 1.9 C 44 %
319 31-03-2020 06:00:18 1.7 C 44 %
320 31-03-2020 06:10:18 1.6 C 45 %
321 31-03-2020 06:20:18 1.5 C 45 %
322 31-03-2020 06:30:18 1.7 C 45 %
323 31-03-2020 06:40:18 2 C 45 %
324 31-03-2020 06:50:18 2.1 C 45 %
325 31-03-2020 07:00:18 2.2 C 45 %
Sensor: Nr:Datum:Temp:Feuchte:
Aussen-T/F 326 31-03-2020 07:10:18 2.3 C 45 %
327 31-03-2020 07:20:18 2.2 C 44 %
328 31-03-2020 07:30:18 2.1 C 44 %
329 31-03-2020 07:40:18 1.7 C 45 %
330 31-03-2020 07:50:17 2 C 45 %
331 31-03-2020 08:00:18 2.5 C 45 %
332 31-03-2020 08:10:18 3.1 C 43 %
333 31-03-2020 08:20:18 3.3 C 42 %
334 31-03-2020 08:30:18 3.5 C 41 %
335 31-03-2020 08:40:18 3.7 C 40 %
336 31-03-2020 08:50:17 4 C 38 %
337 31-03-2020 09:00:18 3.9 C 38 %
338 31-03-2020 09:10:18 3.9 C 37 %
339 31-03-2020 09:20:18 4 C 36 %
340 31-03-2020 09:30:17 4 C 36 %
341 31-03-2020 09:40:17 4.1 C 35 %
342 31-03-2020 09:50:18 4.3 C 35 %
343 31-03-2020 10:00:18 4.8 C 34 %
344 31-03-2020 10:10:18 4.7 C 34 %
345 31-03-2020 10:20:18 4.5 C 34 %
346 31-03-2020 10:30:18 4.4 C 34 %
347 31-03-2020 10:40:18 4.3 C 34 %
348 31-03-2020 10:50:17 4.3 C 33 %
349 31-03-2020 11:00:17 4.3 C 33 %
350 31-03-2020 11:10:17 4.4 C 32 %
Sensor: Nr:Datum:Temp:Feuchte:
Aussen-T/F 351 31-03-2020 11:20:18 4.7 C 31 %
352 31-03-2020 11:30:18 5.4 C 30 %
353 31-03-2020 11:40:18 5.3 C 30 %
354 31-03-2020 11:50:17 5.3 C 29 %
355 31-03-2020 12:00:18 5.6 C 27 %
356 31-03-2020 12:10:18 6.3 C 25 %
357 31-03-2020 12:20:17 6.4 C 20 %
358 31-03-2020 12:30:18 9.2 C 20 %
359 31-03-2020 12:40:18 8.4 C 20 %
360 31-03-2020 12:50:18 7 C 20 %
361 31-03-2020 13:00:17 7.5 C 20 %
362 31-03-2020 13:10:17 7.1 C 20 %
363 31-03-2020 13:20:17 7.3 C 20 %
364 31-03-2020 13:30:17 7 C 20 %
365 31-03-2020 13:40:17 8.1 C 20 %
366 31-03-2020 13:51:17 8.4 C 20 %
367 31-03-2020 14:00:17 8.5 C 20 %
368 31-03-2020 14:10:17 9.7 C 20 %
369 31-03-2020 14:20:17 11.2 C 20 %
370 31-03-2020 14:30:17 12.6 C 20 %
371 31-03-2020 14:40:17 11.7 C 20 %
372 31-03-2020 14:51:17 12 C 20 %
373 31-03-2020 15:00:17 12 C 20 %
374 31-03-2020 15:10:18 13.1 C 20 %
375 31-03-2020 15:20:17 13.2 C 20 %
Sensor: Nr:Datum:Temp:Feuchte:
Aussen-T/F 376 31-03-2020 15:30:17 13.5 C 20 %
377 31-03-2020 15:40:17 14.6 C 20 %
378 31-03-2020 15:50:18 13.9 C 20 %
379 31-03-2020 16:00:17 16.8 C 20 %
380 31-03-2020 16:10:17 14.8 C 20 %
381 31-03-2020 16:20:17 15.8 C 20 %
382 31-03-2020 16:31:17 15.1 C 20 %
383 31-03-2020 16:40:17 14 C 20 %
384 31-03-2020 16:50:17 13.3 C 20 %
385 31-03-2020 17:00:17 14.4 C 20 %
386 31-03-2020 17:10:17 16.2 C 20 %
387 31-03-2020 17:21:17 15.3 C 20 %
388 31-03-2020 17:31:17 14.7 C 20 %
389 31-03-2020 17:40:17 15.5 C 20 %
390 31-03-2020 17:51:17 10.6 C 20 %
391 31-03-2020 18:01:17 10.5 C 20 %
392 31-03-2020 18:11:17 10.2 C 20 %
393 31-03-2020 18:21:17 9.8 C 20 %
394 31-03-2020 18:31:17 9.6 C 20 %
395 31-03-2020 18:40:17 9.4 C 20 %
396 31-03-2020 18:51:17 9.1 C 20 %
397 31-03-2020 19:00:17 9.1 C 20 %
398 31-03-2020 19:10:17 8.8 C 20 %
399 31-03-2020 19:20:17 8.7 C 20 %
400 31-03-2020 19:31:17 8.2 C 20 %
Sensor: Nr:Datum:Temp:Feuchte:
Aussen-T/F 401 31-03-2020 19:41:17 7.7 C 20 %
402 31-03-2020 19:50:17 6.6 C 20 %
403 31-03-2020 20:01:17 5.6 C 20 %
404 31-03-2020 20:11:17 5.5 C 20 %
405 31-03-2020 20:21:17 5.3 C 20 %
406 31-03-2020 20:31:17 4.7 C 20 %
407 31-03-2020 20:41:17 4.4 C 20 %
408 31-03-2020 20:51:17 4 C 20 %
409 31-03-2020 21:00:17 3.7 C 20 %
410 31-03-2020 21:10:18 3.9 C 20 %
411 31-03-2020 21:21:17 3.7 C 20 %
412 31-03-2020 21:31:17 3.5 C 20 %
413 31-03-2020 21:41:17 3.2 C 23 %
414 31-03-2020 21:51:17 3.2 C 23 %
415 31-03-2020 22:00:18 3 C 23 %
416 31-03-2020 22:10:18 2.7 C 25 %
417 31-03-2020 22:21:17 2.7 C 25 %
418 31-03-2020 22:31:17 2.6 C 25 %
419 31-03-2020 22:41:17 1.8 C 30 %
420 31-03-2020 22:50:18 1.6 C 30 %
421 31-03-2020 23:01:17 1.6 C 30 %
422 31-03-2020 23:11:17 1.7 C 30 %
423 31-03-2020 23:21:17 1.4 C 31 %
424 31-03-2020 23:30:17 1.3 C 31 %
425 31-03-2020 23:40:18 1.6 C 31 %
Sensor: Nr:Datum:Temp:Feuchte:
Aussen-T/F 426 31-03-2020 23:51:17 0.9 C 32 %
427 01-04-2020 00:01:17 1.2 C 31 %
428 01-04-2020 00:11:17 0 C 35 %
429 01-04-2020 00:21:17 0.8 C 33 %
430 01-04-2020 00:31:17 0.6 C 32 %
431 01-04-2020 00:41:17 0.5 C 33 %
432 01-04-2020 00:51:17 -0.3 C 35 %
433 01-04-2020 01:01:17 -0.1 C 36 %
434 01-04-2020 01:11:17 -0.3 C 35 %
435 01-04-2020 01:21:17 -1 C 37 %
436 01-04-2020 01:30:18 -1.4 C 38 %
437 01-04-2020 01:40:18 -1.7 C 38 %
438 01-04-2020 01:51:17 -1.9 C 38 %
439 01-04-2020 02:01:17 -1.9 C 38 %
440 01-04-2020 02:11:17 -2 C 38 %
441 01-04-2020 02:21:17 -2.1 C 38 %
442 01-04-2020 02:31:17 -2.3 C 39 %
443 01-04-2020 02:41:17 -2.4 C 38 %
444 01-04-2020 02:50:18 -2.4 C 39 %
445 01-04-2020 03:01:17 -2.5 C 38 %
446 01-04-2020 03:11:17 -2.6 C 38 %
447 01-04-2020 03:21:17 -2.8 C 39 %
448 01-04-2020 03:31:17 -2.7 C 38 %
449 01-04-2020 03:41:18 -3 C 38 %
450 01-04-2020 03:51:17 -3 C 39 %
Sensor: Nr:Datum:Temp:Feuchte:
Aussen-T/F 451 01-04-2020 04:01:17 -2.8 C 39 %
452 01-04-2020 04:11:17 -3.1 C 38 %
453 01-04-2020 04:21:17 -3.2 C 39 %
454 01-04-2020 04:31:18 -3.5 C 38 %
455 01-04-2020 04:41:19 -3.4 C 39 %
456 01-04-2020 04:51:17 -3.5 C 39 %
457 01-04-2020 05:01:18 -3.6 C 39 %
458 01-04-2020 05:11:19 -3.8 C 40 %
459 01-04-2020 05:21:17 -3.8 C 40 %
460 01-04-2020 05:31:18 -3.8 C 40 %
461 01-04-2020 05:41:18 -4 C 40 %
462 01-04-2020 05:51:17 -4.2 C 40 %
463 01-04-2020 06:01:18 -4.2 C 40 %
464 01-04-2020 06:11:18 -4 C 40 %
465 01-04-2020 06:21:17 -4.2 C 40 %
466 01-04-2020 06:31:17 -4.2 C 41 %
467 01-04-2020 06:41:17 -4.3 C 41 %
468 01-04-2020 06:51:17 -4.5 C 41 %
469 01-04-2020 07:01:18 -4.6 C 41 %
470 01-04-2020 07:11:19 -4.7 C 41 %
471 01-04-2020 07:21:17 -4.5 C 41 %
472 01-04-2020 07:31:18 -4.4 C 41 %
473 01-04-2020 07:41:18 -4.5 C 41 %
474 01-04-2020 07:51:17 -4.3 C 41 %
475 01-04-2020 08:01:17 -4.2 C 41 %
Sensor: Nr:Datum:Temp:Feuchte:
Aussen-T/F 476 01-04-2020 08:11:17 -4.2 C 41 %
477 01-04-2020 08:21:17 -3.7 C 41 %
478 01-04-2020 08:31:17 -3.8 C 41 %
479 01-04-2020 08:41:17 -3.7 C 41 %
480 01-04-2020 08:51:17 -3.4 C 40 %
481 01-04-2020 09:01:17 -3.4 C 40 %
482 01-04-2020 09:11:17 -2.7 C 40 %
483 01-04-2020 09:21:17 -2.6 C 40 %
484 01-04-2020 09:31:17 -2.5 C 40 %
485 01-04-2020 09:41:17 -2.1 C 40 %
486 01-04-2020 09:51:17 -1.5 C 39 %
487 01-04-2020 10:01:17 -1 C 39 %
488 01-04-2020 10:11:17 -0.9 C 40 %
489 01-04-2020 10:21:17 -0.4 C 40 %
490 01-04-2020 10:31:18 0.5 C 39 %
491 01-04-2020 10:41:18 1 C 37 %
492 01-04-2020 10:51:17 1.6 C 36 %
493 01-04-2020 11:01:17 2.4 C 35 %
494 01-04-2020 11:11:17 3.2 C 33 %
495 01-04-2020 11:21:17 4.2 C 29 %
496 01-04-2020 11:31:17 4.8 C 20 %
497 01-04-2020 11:41:17 5.3 C 20 %
498 01-04-2020 11:51:17 6 C 20 %
499 01-04-2020 12:01:17 6.6 C 20 %
500 01-04-2020 12:11:18 7.1 C 20 %
Sensor: Nr:Datum:Temp:Feuchte:
Aussen-T/F 501 01-04-2020 12:21:17 8.9 C 20 %
502 01-04-2020 12:31:17 10.3 C 20 %
503 01-04-2020 12:41:17 9.2 C 20 %
504 01-04-2020 12:51:17 8 C 20 %
505 01-04-2020 13:01:17 9.3 C 20 %
506 01-04-2020 13:11:17 9.3 C 20 %
507 01-04-2020 13:21:16 8.6 C 20 %
508 01-04-2020 13:31:17 9.2 C 20 %
509 01-04-2020 13:41:17 9.6 C 20 %
510 01-04-2020 13:51:17 10 C 20 %
511 01-04-2020 14:01:17 10.3 C 20 %
512 01-04-2020 14:11:17 10.7 C 20 %
513 01-04-2020 14:21:17 13.2 C 20 %
514 01-04-2020 14:31:16 15.9 C 20 %
515 01-04-2020 14:41:16 16.3 C 20 %
516 01-04-2020 14:51:17 13.7 C 20 %
517 01-04-2020 15:01:17 14.2 C 20 %
518 01-04-2020 15:11:17 17.2 C 20 %
519 01-04-2020 15:21:17 16.8 C 20 %
520 01-04-2020 15:31:16 16.3 C 20 %
521 01-04-2020 15:41:16 18.2 C 20 %
522 01-04-2020 15:51:17 19.5 C 20 %
523 01-04-2020 16:01:16 18.7 C 20 %
524 01-04-2020 16:11:16 18.7 C 20 %
525 01-04-2020 16:21:16 19.7 C 20 %
Sensor: Nr:Datum:Temp:Feuchte:
Aussen-T/F 526 01-04-2020 16:31:17 21.3 C 20 %
527 01-04-2020 16:41:17 15.5 C 20 %
528 01-04-2020 16:51:16 18.4 C 20 %
529 01-04-2020 17:01:16 17.2 C 20 %
530 01-04-2020 17:11:16 17.4 C 20 %
531 01-04-2020 17:21:17 17.7 C 20 %
532 01-04-2020 17:31:17 18.5 C 20 %
533 01-04-2020 17:41:17 16.8 C 20 %
534 01-04-2020 17:51:17 15.8 C 20 %
535 01-04-2020 18:01:17 12.6 C 20 %
536 01-04-2020 18:11:17 12 C 20 %
537 01-04-2020 18:21:16 12.1 C 20 %
538 01-04-2020 18:31:17 11.7 C 20 %
539 01-04-2020 18:41:17 11.8 C 20 %
540 01-04-2020 18:51:16 11.6 C 20 %
541 01-04-2020 19:01:17 11 C 20 %
542 01-04-2020 19:11:17 10.7 C 20 %
543 01-04-2020 19:21:17 10.4 C 20 %
544 01-04-2020 19:31:17 9.9 C 20 %
545 01-04-2020 19:41:17 9.6 C 20 %
546 01-04-2020 19:51:16 8.9 C 20 %
547 01-04-2020 20:01:17 8.1 C 20 %
548 01-04-2020 20:11:17 7.8 C 20 %
549 01-04-2020 20:21:16 8.1 C 20 %
550 01-04-2020 20:31:16 7.1 C 20 %
Sensor: Nr:Datum:Temp:Feuchte:
Aussen-T/F 551 01-04-2020 20:41:16 6.2 C 20 %
552 01-04-2020 20:51:16 5.9 C 20 %
553 01-04-2020 21:01:16 6 C 20 %
554 01-04-2020 21:11:16 6 C 20 %
555 01-04-2020 21:21:16 5.7 C 20 %
556 01-04-2020 21:31:16 5.7 C 20 %
557 01-04-2020 21:41:16 5.4 C 20 %
558 01-04-2020 21:51:16 4 C 21 %
559 01-04-2020 22:01:16 4.2 C 21 %
560 01-04-2020 22:11:16 3.7 C 26 %
561 01-04-2020 22:21:16 3.2 C 26 %
562 01-04-2020 22:31:16 2.5 C 29 %
563 01-04-2020 22:41:16 2.6 C 28 %
564 01-04-2020 22:51:16 2 C 30 %
565 01-04-2020 23:01:17 1.7 C 33 %
566 01-04-2020 23:11:17 1.7 C 32 %
567 01-04-2020 23:21:16 1.4 C 34 %
568 01-04-2020 23:31:16 1.2 C 34 %
569 01-04-2020 23:41:16 1 C 35 %
570 01-04-2020 23:51:16 1.1 C 34 %
571 02-04-2020 00:01:17 1 C 35 %
572 02-04-2020 00:11:17 0.4 C 36 %
573 02-04-2020 00:21:16 0.4 C 36 %
574 02-04-2020 00:31:17 0.2 C 36 %
575 02-04-2020 00:41:17 0.3 C 37 %
Sensor: Nr:Datum:Temp:Feuchte:
Aussen-T/F 576 02-04-2020 00:51:16 0.3 C 36 %
577 02-04-2020 01:01:17 0 C 37 %
578 02-04-2020 01:11:17 -0.4 C 38 %
579 02-04-2020 01:21:16 -0.6 C 38 %
580 02-04-2020 01:31:17 -0.7 C 38 %
581 02-04-2020 01:41:17 -0.7 C 38 %
582 02-04-2020 01:51:16 -0.9 C 39 %
583 02-04-2020 02:01:16 -1 C 39 %
584 02-04-2020 02:11:16 -1 C 39 %
585 02-04-2020 02:21:16 -1.2 C 39 %
586 02-04-2020 02:31:17 -1.3 C 40 %
587 02-04-2020 02:41:17 -1.6 C 40 %
588 02-04-2020 02:51:17 -1.5 C 40 %
589 02-04-2020 03:01:17 -1.5 C 40 %
590 02-04-2020 03:11:17 -1.5 C 40 %
591 02-04-2020 03:21:17 -1.3 C 40 %
592 02-04-2020 03:31:17 -1.4 C 40 %
593 02-04-2020 03:41:17 -1.6 C 40 %
594 02-04-2020 03:51:18 -1.7 C 40 %
595 02-04-2020 04:01:18 -2.1 C 40 %
596 02-04-2020 04:11:18 -1.7 C 41 %
597 02-04-2020 04:21:18 -1.6 C 40 %
598 02-04-2020 04:31:17 -2 C 40 %
599 02-04-2020 04:41:17 -2.4 C 41 %
600 02-04-2020 04:51:17 -2.7 C 41 %
Sensor: Nr:Datum:Temp:Feuchte:
Aussen-T/F 601 02-04-2020 05:01:18 -2.6 C 41 %
602 02-04-2020 05:11:18 -2.6 C 41 %
603 02-04-2020 05:21:17 -2.6 C 41 %
604 02-04-2020 05:31:18 -2.7 C 41 %
605 02-04-2020 05:41:18 -2.6 C 41 %
606 02-04-2020 05:51:17 -2.5 C 41 %
607 02-04-2020 06:01:17 -2.6 C 41 %
608 02-04-2020 06:11:17 -3 C 41 %
609 02-04-2020 06:21:17 -3 C 42 %
610 02-04-2020 06:31:17 -2.6 C 43 %
611 02-04-2020 06:41:17 -3.1 C 42 %
612 02-04-2020 06:51:17 -2.9 C 42 %
613 02-04-2020 07:01:17 -3.3 C 42 %
614 02-04-2020 07:11:17 -3 C 42 %
615 02-04-2020 07:21:17 -3.1 C 42 %
616 02-04-2020 07:31:17 -3 C 43 %
617 02-04-2020 07:41:18 -2.9 C 42 %
618 02-04-2020 07:51:17 -3 C 43 %
619 02-04-2020 08:01:17 -2.7 C 43 %
620 02-04-2020 08:11:18 -2.5 C 43 %
621 02-04-2020 08:21:17 -2.2 C 42 %
622 02-04-2020 08:31:17 -2.2 C 42 %
623 02-04-2020 08:41:17 -2 C 42 %
624 02-04-2020 08:51:17 -1.8 C 42 %
625 02-04-2020 09:01:17 -1.7 C 42 %
Sensor: Nr:Datum:Temp:Feuchte:
Aussen-T/F 626 02-04-2020 09:11:17 -1.5 C 41 %
627 02-04-2020 09:21:17 -1.3 C 41 %
628 02-04-2020 09:31:17 -1 C 41 %
629 02-04-2020 09:41:17 -0.6 C 41 %
630 02-04-2020 09:51:18 -0.3 C 41 %
631 02-04-2020 10:01:18 0.1 C 41 %
632 02-04-2020 10:11:18 0.6 C 41 %
633 02-04-2020 10:21:17 0.8 C 41 %
634 02-04-2020 10:31:17 1.7 C 40 %
635 02-04-2020 10:41:17 2.2 C 39 %
636 02-04-2020 10:51:17 3.1 C 37 %
637 02-04-2020 11:01:17 3.6 C 37 %
638 02-04-2020 11:11:17 4.6 C 35 %
639 02-04-2020 11:21:17 5.7 C 30 %
640 02-04-2020 11:31:18 6.5 C 30 %
641 02-04-2020 11:41:18 6.9 C 29 %
642 02-04-2020 11:51:17 7.4 C 27 %
643 02-04-2020 12:01:17 8.1 C 27 %
644 02-04-2020 12:11:17 8.5 C 25 %
645 02-04-2020 12:21:17 10.5 C 20 %
646 02-04-2020 12:31:18 12.2 C 20 %
647 02-04-2020 12:41:18 10.8 C 20 %
648 02-04-2020 12:51:17 10.3 C 20 %
649 02-04-2020 13:01:17 11 C 20 %
650 02-04-2020 13:11:18 11.5 C 20 %
Sensor: Nr:Datum:Temp:Feuchte:
Aussen-T/F 651 02-04-2020 13:21:17 11.6 C 20 %
652 02-04-2020 13:31:17 11.4 C 20 %
653 02-04-2020 13:41:17 12.3 C 20 %
654 02-04-2020 13:51:17 12.5 C 20 %
655 02-04-2020 14:01:17 11.8 C 20 %
656 02-04-2020 14:11:17 12.6 C 20 %
657 02-04-2020 14:21:17 15.5 C 20 %
658 02-04-2020 14:31:18 18.1 C 20 %
659 02-04-2020 14:41:18 18.3 C 20 %
660 02-04-2020 14:51:17 18.3 C 20 %
661 02-04-2020 15:01:18 19.7 C 20 %
662 02-04-2020 15:11:18 17.5 C 20 %
663 02-04-2020 15:21:17 19.2 C 20 %
664 02-04-2020 15:31:18 19.8 C 20 %
665 02-04-2020 15:41:18 19.3 C 20 %
666 02-04-2020 15:51:17 19.4 C 20 %
667 02-04-2020 16:01:17 21.3 C 20 %
668 02-04-2020 16:11:17 19.9 C 20 %
669 02-04-2020 16:21:17 16.6 C 20 %
670 02-04-2020 16:31:18 18 C 20 %
671 02-04-2020 16:41:18 17.6 C 20 %
672 02-04-2020 16:51:17 17.8 C 20 %
673 02-04-2020 17:01:17 17.3 C 20 %
674 02-04-2020 17:11:17 16.6 C 20 %
675 02-04-2020 17:21:17 15.8 C 20 %
Sensor: Nr:Datum:Temp:Feuchte:
Aussen-T/F 676 02-04-2020 17:31:18 15.5 C 20 %
677 02-04-2020 17:41:18 14.7 C 20 %
678 02-04-2020 17:51:17 14.8 C 20 %
679 02-04-2020 18:01:17 12.8 C 20 %
680 02-04-2020 18:11:17 12.2 C 20 %
681 02-04-2020 18:21:17 12.3 C 20 %
682 02-04-2020 18:31:17 11.8 C 20 %
683 02-04-2020 18:41:17 11.3 C 20 %
684 02-04-2020 18:51:17 11.1 C 20 %
685 02-04-2020 19:01:17 10.7 C 20 %
686 02-04-2020 19:11:17 10.2 C 20 %
687 02-04-2020 19:21:17 10 C 20 %
688 02-04-2020 19:31:17 9.6 C 20 %
689 02-04-2020 19:41:17 9.5 C 20 %
690 02-04-2020 19:51:17 8.7 C 20 %
691 02-04-2020 20:01:17 8.5 C 20 %
692 02-04-2020 20:11:17 8.5 C 20 %
693 02-04-2020 20:21:17 7.9 C 20 %
694 02-04-2020 20:31:17 7.8 C 20 %
695 02-04-2020 20:41:17 7.2 C 21 %
696 02-04-2020 20:51:17 6.9 C 25 %
697 02-04-2020 21:01:17 6.4 C 26 %
698 02-04-2020 21:11:17 6.3 C 27 %
699 02-04-2020 21:21:17 5.9 C 28 %
700 02-04-2020 21:31:18 5.7 C 29 %
Sensor: Nr:Datum:Temp:Feuchte:
Aussen-T/F 701 02-04-2020 21:41:18 5.6 C 30 %
702 02-04-2020 21:51:17 5.3 C 30 %
703 02-04-2020 22:01:17 5.2 C 30 %
704 02-04-2020 22:11:17 5.5 C 30 %
705 02-04-2020 22:21:17 5 C 30 %
706 02-04-2020 22:31:18 5.3 C 31 %
707 02-04-2020 22:41:18 5.2 C 31 %
708 02-04-2020 22:51:17 5.1 C 31 %
709 02-04-2020 23:01:17 4.8 C 32 %
710 02-04-2020 23:11:17 5 C 31 %
711 02-04-2020 23:21:17 5 C 31 %
712 02-04-2020 23:31:18 4.7 C 33 %
713 02-04-2020 23:41:18 3.9 C 35 %
714 02-04-2020 23:51:17 3.1 C 36 %
Sensor: Nr:Datum:Temp:Feuchte:
G-T/H 1 29-03-2020 00:00:18 10.9 C 62 %
2 29-03-2020 00:10:18 10.9 C 62 %
3 29-03-2020 00:20:17 10.9 C 62 %
4 29-03-2020 00:30:17 10.9 C 62 %
5 29-03-2020 00:40:17 10.9 C 62 %
6 29-03-2020 00:50:18 10.9 C 62 %
7 29-03-2020 01:00:18 10.9 C 62 %
8 29-03-2020 01:10:18 10.9 C 62 %
9 29-03-2020 01:20:17 10.8 C 62 %
10 29-03-2020 01:30:17 10.8 C 62 %
11 29-03-2020 01:40:17 10.8 C 62 %
12 29-03-2020 01:50:17 10.8 C 62 %
13 29-03-2020 02:00:17 10.8 C 62 %
14 29-03-2020 02:10:17 10.8 C 62 %
15 29-03-2020 02:20:18 10.8 C 62 %
16 29-03-2020 02:30:18 10.8 C 62 %
17 29-03-2020 02:40:18 10.7 C 62 %
18 29-03-2020 02:50:18 10.7 C 62 %
19 29-03-2020 04:00:18 10.7 C 62 %
20 29-03-2020 04:10:18 10.7 C 62 %
21 29-03-2020 04:20:17 10.7 C 61 %
22 29-03-2020 04:30:17 10.6 C 61 %
23 29-03-2020 04:40:17 10.6 C 61 %
24 29-03-2020 04:50:18 10.6 C 61 %
25 29-03-2020 05:00:17 10.6 C 61 %
Sensor: Nr:Datum:Temp:Feuchte:
G-T/H 26 29-03-2020 05:10:17 10.5 C 60 %
27 29-03-2020 05:20:17 10.5 C 60 %
28 29-03-2020 05:30:17 10.5 C 60 %
29 29-03-2020 05:40:17 10.5 C 60 %
30 29-03-2020 05:50:18 10.5 C 60 %
31 29-03-2020 06:00:18 10.5 C 60 %
32 29-03-2020 06:10:18 10.5 C 60 %
33 29-03-2020 06:20:17 10.5 C 60 %
34 29-03-2020 06:30:18 10.4 C 60 %
35 29-03-2020 06:40:18 10.4 C 60 %
36 29-03-2020 06:50:17 10.4 C 60 %
37 29-03-2020 07:00:18 10.4 C 60 %
38 29-03-2020 07:10:18 10.4 C 60 %
39 29-03-2020 07:20:17 10.4 C 60 %
40 29-03-2020 07:30:17 10.4 C 60 %
41 29-03-2020 07:40:17 10.3 C 61 %
42 29-03-2020 07:50:17 10.4 C 61 %
43 29-03-2020 08:00:18 10.3 C 61 %
44 29-03-2020 08:10:18 10.3 C 61 %
45 29-03-2020 08:20:17 10.3 C 60 %
46 29-03-2020 08:30:17 10.2 C 60 %
47 29-03-2020 08:40:17 10.2 C 60 %
48 29-03-2020 08:50:17 10.2 C 60 %
49 29-03-2020 09:00:17 10.2 C 60 %
50 29-03-2020 09:10:17 10.2 C 60 %
Sensor: Nr:Datum:Temp:Feuchte:
G-T/H 51 29-03-2020 09:20:17 10.2 C 60 %
52 29-03-2020 09:30:17 10.2 C 60 %
53 29-03-2020 09:40:17 10.2 C 60 %
54 29-03-2020 09:50:17 10.2 C 60 %
55 29-03-2020 10:00:17 10.1 C 60 %
56 29-03-2020 10:10:17 10.1 C 60 %
57 29-03-2020 10:20:17 10.1 C 60 %
58 29-03-2020 10:30:18 10.1 C 60 %
59 29-03-2020 10:40:18 10.1 C 60 %
60 29-03-2020 10:50:17 10.1 C 60 %
61 29-03-2020 11:00:18 10.1 C 60 %
62 29-03-2020 11:10:18 10.1 C 60 %
63 29-03-2020 11:20:18 10 C 60 %
64 29-03-2020 11:30:18 10 C 60 %
65 29-03-2020 11:40:18 10 C 60 %
66 29-03-2020 11:50:17 10 C 60 %
67 29-03-2020 12:00:17 10 C 60 %
68 29-03-2020 12:10:17 10 C 60 %
69 29-03-2020 12:20:17 10 C 60 %
70 29-03-2020 12:30:17 10 C 60 %
71 29-03-2020 12:40:17 10 C 60 %
72 29-03-2020 12:50:18 10 C 59 %
73 29-03-2020 13:00:18 10 C 59 %
74 29-03-2020 13:10:18 9.9 C 60 %
75 29-03-2020 13:20:17 9.9 C 60 %
Sensor: Nr:Datum:Temp:Feuchte:
G-T/H 76 29-03-2020 13:30:17 9.9 C 60 %
77 29-03-2020 13:40:18 9.9 C 60 %
78 29-03-2020 13:50:17 9.9 C 60 %
79 29-03-2020 14:00:18 9.9 C 60 %
80 29-03-2020 14:10:18 9.9 C 60 %
81 29-03-2020 14:20:17 9.9 C 60 %
82 29-03-2020 14:30:17 9.9 C 60 %
83 29-03-2020 14:40:17 9.9 C 60 %
84 29-03-2020 14:50:17 9.9 C 60 %
85 29-03-2020 15:00:17 9.9 C 60 %
86 29-03-2020 15:10:17 9.9 C 60 %
87 29-03-2020 15:20:17 9.9 C 60 %
88 29-03-2020 15:30:18 9.9 C 60 %
89 29-03-2020 15:40:18 9.9 C 60 %
90 29-03-2020 15:50:17 9.9 C 60 %
91 29-03-2020 16:00:18 9.9 C 60 %
92 29-03-2020 16:10:18 9.9 C 60 %
93 29-03-2020 16:20:17 9.9 C 60 %
94 29-03-2020 16:30:18 9.9 C 60 %
95 29-03-2020 16:40:18 9.9 C 60 %
96 29-03-2020 16:50:18 9.9 C 60 %
97 29-03-2020 17:00:18 9.9 C 60 %
98 29-03-2020 17:10:18 9.9 C 60 %
99 29-03-2020 17:20:17 9.9 C 60 %
100 29-03-2020 17:30:17 9.9 C 60 %
Sensor: Nr:Datum:Temp:Feuchte:
G-T/H 101 29-03-2020 17:40:17 9.9 C 60 %
102 29-03-2020 17:50:18 9.9 C 60 %
103 29-03-2020 18:00:18 9.9 C 60 %
104 29-03-2020 18:10:18 9.9 C 60 %
105 29-03-2020 18:20:18 9.9 C 60 %
106 29-03-2020 18:30:18 9.9 C 60 %
107 29-03-2020 18:40:18 9.9 C 60 %
108 29-03-2020 18:50:18 9.9 C 60 %
109 29-03-2020 19:00:18 9.9 C 60 %
110 29-03-2020 19:10:18 9.9 C 60 %
111 29-03-2020 19:20:17 9.9 C 60 %
112 29-03-2020 19:30:17 9.9 C 60 %
113 29-03-2020 19:40:17 9.9 C 60 %
114 29-03-2020 19:50:17 9.9 C 60 %
115 29-03-2020 20:00:17 9.8 C 60 %
116 29-03-2020 20:10:17 9.8 C 61 %
117 29-03-2020 20:20:18 9.8 C 61 %
118 29-03-2020 20:30:18 9.8 C 61 %
119 29-03-2020 20:40:18 9.8 C 61 %
120 29-03-2020 20:50:18 9.8 C 61 %
121 29-03-2020 21:00:18 9.8 C 61 %
122 29-03-2020 21:10:18 9.8 C 61 %
123 29-03-2020 21:20:18 9.8 C 61 %
124 29-03-2020 21:30:17 9.8 C 61 %
125 29-03-2020 21:40:17 9.8 C 62 %
Sensor: Nr:Datum:Temp:Feuchte:
G-T/H 126 29-03-2020 21:50:17 9.8 C 62 %
127 29-03-2020 22:00:17 9.8 C 62 %
128 29-03-2020 22:10:17 9.8 C 62 %
129 29-03-2020 22:20:18 9.8 C 61 %
130 29-03-2020 22:30:18 9.7 C 61 %
131 29-03-2020 22:40:18 9.7 C 61 %
132 29-03-2020 22:50:18 9.7 C 61 %
133 29-03-2020 23:00:18 9.7 C 61 %
134 29-03-2020 23:10:18 9.7 C 61 %
135 29-03-2020 23:20:17 9.7 C 61 %
136 29-03-2020 23:30:17 9.7 C 61 %
137 29-03-2020 23:40:17 9.6 C 61 %
138 29-03-2020 23:50:17 9.6 C 61 %
139 30-03-2020 00:00:18 9.6 C 61 %
140 30-03-2020 00:10:18 9.6 C 60 %
141 30-03-2020 00:20:17 9.6 C 60 %
142 30-03-2020 00:30:17 9.6 C 60 %
143 30-03-2020 00:40:17 9.6 C 60 %
144 30-03-2020 00:50:17 9.5 C 60 %
145 30-03-2020 01:00:18 9.5 C 60 %
146 30-03-2020 01:10:18 9.5 C 61 %
147 30-03-2020 01:20:17 9.5 C 61 %
148 30-03-2020 01:30:18 9.5 C 61 %
149 30-03-2020 01:40:18 9.5 C 61 %
150 30-03-2020 01:50:17 9.4 C 61 %
Sensor: Nr:Datum:Temp:Feuchte:
G-T/H 151 30-03-2020 02:00:17 9.4 C 61 %
152 30-03-2020 02:10:17 9.4 C 61 %
153 30-03-2020 02:20:17 9.4 C 61 %
154 30-03-2020 02:30:18 9.4 C 61 %
155 30-03-2020 02:40:18 9.3 C 61 %
156 30-03-2020 02:50:17 9.3 C 61 %
157 30-03-2020 03:00:18 9.3 C 61 %
158 30-03-2020 03:10:18 9.3 C 61 %
159 30-03-2020 03:20:18 9.3 C 61 %
160 30-03-2020 03:30:18 9.3 C 61 %
161 30-03-2020 03:40:18 9.2 C 61 %
162 30-03-2020 03:50:17 9.2 C 61 %
163 30-03-2020 04:00:18 9.2 C 61 %
164 30-03-2020 04:10:18 9.1 C 61 %
165 30-03-2020 04:20:17 9.2 C 60 %
166 30-03-2020 04:30:17 9.2 C 60 %
167 30-03-2020 04:40:17 9.1 C 60 %
168 30-03-2020 04:50:17 9.1 C 60 %
169 30-03-2020 05:00:17 9 C 60 %
170 30-03-2020 05:10:17 9 C 60 %
171 30-03-2020 05:20:17 9 C 60 %
172 30-03-2020 05:30:18 9 C 60 %
173 30-03-2020 05:40:18 9 C 60 %
174 30-03-2020 05:50:17 9 C 60 %
175 30-03-2020 06:00:18 8.9 C 61 %
Sensor: Nr:Datum:Temp:Feuchte:
G-T/H 176 30-03-2020 06:10:18 8.9 C 61 %
177 30-03-2020 06:20:17 8.9 C 61 %
178 30-03-2020 06:30:17 8.8 C 61 %
179 30-03-2020 06:40:17 8.9 C 61 %
180 30-03-2020 06:50:17 8.8 C 61 %
181 30-03-2020 07:00:17 8.7 C 61 %
182 30-03-2020 07:10:17 8.7 C 61 %
183 30-03-2020 07:20:17 8.7 C 61 %
184 30-03-2020 07:30:18 8.7 C 60 %
185 30-03-2020 07:40:18 8.7 C 60 %
186 30-03-2020 07:50:17 8.7 C 60 %
187 30-03-2020 08:00:18 8.6 C 60 %
188 30-03-2020 08:10:18 8.6 C 60 %
189 30-03-2020 08:20:18 8.6 C 60 %
190 30-03-2020 08:30:18 8.5 C 60 %
191 30-03-2020 08:40:18 8.5 C 60 %
192 30-03-2020 08:50:17 8.5 C 60 %
193 30-03-2020 09:00:18 8.5 C 60 %
194 30-03-2020 09:10:18 8.5 C 60 %
195 30-03-2020 09:20:18 8.5 C 60 %
196 30-03-2020 09:30:18 8.5 C 60 %
197 30-03-2020 09:40:18 8.4 C 60 %
198 30-03-2020 09:50:18 8.4 C 60 %
199 30-03-2020 10:00:18 8.4 C 60 %
200 30-03-2020 10:10:18 8.4 C 60 %
Sensor: Nr:Datum:Temp:Feuchte:
G-T/H 201 30-03-2020 10:20:17 8.3 C 60 %
202 30-03-2020 10:30:17 8.3 C 60 %
203 30-03-2020 10:40:17 8.3 C 60 %
204 30-03-2020 10:50:17 8.3 C 60 %
205 30-03-2020 11:00:17 8.3 C 60 %
206 30-03-2020 11:10:18 8.3 C 60 %
207 30-03-2020 11:20:18 8.2 C 60 %
208 30-03-2020 11:30:18 8.2 C 60 %
209 30-03-2020 11:40:18 8.2 C 60 %
210 30-03-2020 11:50:18 8.2 C 60 %
211 30-03-2020 12:00:18 8.2 C 60 %
212 30-03-2020 12:10:18 8.2 C 60 %
213 30-03-2020 12:20:18 8.2 C 60 %
214 30-03-2020 12:30:18 8.2 C 60 %
215 30-03-2020 12:40:18 8.2 C 60 %
216 30-03-2020 12:50:18 8.2 C 60 %
217 30-03-2020 13:00:18 8.1 C 60 %
218 30-03-2020 13:10:18 8.2 C 60 %
219 30-03-2020 13:20:18 7.9 C 52 %
220 30-03-2020 13:30:17 8 C 50 %
221 30-03-2020 13:40:17 8 C 50 %
222 30-03-2020 13:50:17 8 C 51 %
223 30-03-2020 14:00:17 8 C 52 %
224 30-03-2020 14:10:17 8.1 C 53 %
225 30-03-2020 14:20:18 8.1 C 54 %
Sensor: Nr:Datum:Temp:Feuchte:
G-T/H 226 30-03-2020 14:30:18 8.1 C 54 %
227 30-03-2020 14:40:18 8.1 C 55 %
228 30-03-2020 14:50:18 8.1 C 55 %
229 30-03-2020 15:00:18 8.1 C 56 %
230 30-03-2020 15:10:18 8.1 C 56 %
231 30-03-2020 15:20:17 8.2 C 56 %
232 30-03-2020 15:30:18 8.2 C 56 %
233 30-03-2020 15:40:18 8.2 C 57 %
234 30-03-2020 15:50:18 8.2 C 57 %
235 30-03-2020 16:00:18 8.2 C 57 %
236 30-03-2020 16:10:18 8.3 C 57 %
237 30-03-2020 16:20:17 8.3 C 57 %
238 30-03-2020 16:30:18 8.3 C 58 %
239 30-03-2020 16:40:18 8.3 C 58 %
240 30-03-2020 16:50:18 8.3 C 58 %
241 30-03-2020 17:00:17 8.3 C 58 %
242 30-03-2020 17:10:17 8.3 C 58 %
243 30-03-2020 17:20:18 8.4 C 58 %
244 30-03-2020 17:30:18 8.4 C 58 %
245 30-03-2020 17:40:18 8.4 C 58 %
246 30-03-2020 17:50:18 8.4 C 58 %
247 30-03-2020 18:00:18 8.4 C 59 %
248 30-03-2020 18:10:18 8.4 C 59 %
249 30-03-2020 18:20:18 8.4 C 59 %
250 30-03-2020 18:30:18 8.5 C 59 %
Sensor: Nr:Datum:Temp:Feuchte:
G-T/H 251 30-03-2020 18:40:18 8.4 C 59 %
252 30-03-2020 18:50:18 8.4 C 59 %
253 30-03-2020 19:00:18 8.4 C 60 %
254 30-03-2020 19:10:18 8.5 C 60 %
255 30-03-2020 19:20:17 8.5 C 60 %
256 30-03-2020 19:30:18 8.5 C 60 %
257 30-03-2020 19:40:18 8.5 C 60 %
258 30-03-2020 19:50:17 8.5 C 60 %
259 30-03-2020 20:00:18 8.5 C 60 %
260 30-03-2020 20:10:18 8.5 C 60 %
261 30-03-2020 20:20:17 8.5 C 61 %
262 30-03-2020 20:30:18 8.5 C 61 %
263 30-03-2020 20:40:18 8.5 C 61 %
264 30-03-2020 20:50:18 8.5 C 61 %
265 30-03-2020 21:00:18 8.5 C 61 %
266 30-03-2020 21:10:18 8.5 C 61 %
267 30-03-2020 21:20:18 8.5 C 61 %
268 30-03-2020 21:30:18 8.5 C 61 %
269 30-03-2020 21:40:18 8.5 C 61 %
270 30-03-2020 21:50:18 8.5 C 61 %
271 30-03-2020 22:00:18 8.5 C 62 %
272 30-03-2020 22:10:18 8.5 C 62 %
273 30-03-2020 22:20:17 8.5 C 62 %
274 30-03-2020 22:30:18 8.5 C 62 %
275 30-03-2020 22:40:18 8.5 C 62 %
Sensor: Nr:Datum:Temp:Feuchte:
G-T/H 276 30-03-2020 22:50:18 8.5 C 62 %
277 30-03-2020 23:00:18 8.5 C 62 %
278 30-03-2020 23:10:18 8.5 C 62 %
279 30-03-2020 23:20:18 8.5 C 62 %
280 30-03-2020 23:30:18 8.6 C 62 %
281 30-03-2020 23:40:18 8.5 C 62 %
282 30-03-2020 23:50:17 8.5 C 62 %
283 31-03-2020 00:00:18 8.5 C 62 %
284 31-03-2020 00:10:18 8.5 C 62 %
285 31-03-2020 00:20:18 8.5 C 62 %
286 31-03-2020 00:30:18 8.5 C 63 %
287 31-03-2020 00:40:18 8.6 C 63 %
288 31-03-2020 00:50:18 8.5 C 63 %
289 31-03-2020 01:00:18 8.5 C 63 %
290 31-03-2020 01:10:18 8.5 C 63 %
291 31-03-2020 01:20:18 8.6 C 63 %
292 31-03-2020 01:30:18 8.5 C 63 %
293 31-03-2020 01:40:18 8.6 C 63 %
294 31-03-2020 01:50:18 8.5 C 63 %
295 31-03-2020 02:00:18 8.5 C 63 %
296 31-03-2020 02:10:18 8.5 C 63 %
297 31-03-2020 02:20:17 8.5 C 63 %
298 31-03-2020 02:30:18 8.5 C 63 %
299 31-03-2020 02:40:18 8.5 C 63 %
300 31-03-2020 02:50:18 8.5 C 63 %
Sensor: Nr:Datum:Temp:Feuchte:
G-T/H 301 31-03-2020 03:00:18 8.5 C 64 %
302 31-03-2020 03:10:18 8.5 C 64 %
303 31-03-2020 03:20:17 8.5 C 64 %
304 31-03-2020 03:30:18 8.5 C 64 %
305 31-03-2020 03:40:18 8.5 C 64 %
306 31-03-2020 03:50:18 8.5 C 64 %
307 31-03-2020 04:00:18 8.5 C 64 %
308 31-03-2020 04:10:18 8.5 C 64 %
309 31-03-2020 04:20:18 8.5 C 64 %
310 31-03-2020 04:30:17 8.5 C 64 %
311 31-03-2020 04:40:18 8.5 C 64 %
312 31-03-2020 04:50:17 8.5 C 64 %
313 31-03-2020 05:00:18 8.5 C 64 %
314 31-03-2020 05:10:18 8.5 C 64 %
315 31-03-2020 05:20:17 8.5 C 64 %
316 31-03-2020 05:30:18 8.5 C 64 %
317 31-03-2020 05:40:18 8.5 C 64 %
318 31-03-2020 05:50:18 8.5 C 64 %
319 31-03-2020 06:00:18 8.5 C 64 %
320 31-03-2020 06:10:18 8.5 C 64 %
321 31-03-2020 06:20:18 8.5 C 64 %
322 31-03-2020 06:30:18 8.4 C 64 %
323 31-03-2020 06:40:18 8.5 C 64 %
324 31-03-2020 06:50:18 8.4 C 64 %
325 31-03-2020 07:00:18 8.5 C 64 %
Sensor: Nr:Datum:Temp:Feuchte:
G-T/H 326 31-03-2020 07:10:18 8.4 C 64 %
327 31-03-2020 07:20:18 8.4 C 64 %
328 31-03-2020 07:30:18 8.4 C 64 %
329 31-03-2020 07:40:18 8.4 C 65 %
330 31-03-2020 07:50:17 8.4 C 65 %
331 31-03-2020 08:00:18 8.4 C 65 %
332 31-03-2020 08:10:18 8.4 C 65 %
333 31-03-2020 08:20:18 8.4 C 65 %
334 31-03-2020 08:30:18 8.4 C 65 %
335 31-03-2020 08:40:18 8.4 C 65 %
336 31-03-2020 08:50:17 8.4 C 65 %
337 31-03-2020 09:00:18 8.4 C 65 %
338 31-03-2020 09:10:18 8.4 C 65 %
339 31-03-2020 09:20:18 8.4 C 65 %
340 31-03-2020 09:30:17 8.4 C 65 %
341 31-03-2020 09:40:17 8.4 C 65 %
342 31-03-2020 09:50:18 8.4 C 65 %
343 31-03-2020 10:00:18 8.4 C 65 %
344 31-03-2020 10:10:18 8.4 C 65 %
345 31-03-2020 10:20:18 8.4 C 65 %
346 31-03-2020 10:30:18 8.4 C 65 %
347 31-03-2020 10:40:18 8.4 C 64 %
348 31-03-2020 10:50:17 8.4 C 64 %
349 31-03-2020 11:00:17 8.4 C 64 %
350 31-03-2020 11:10:17 8.4 C 64 %
Sensor: Nr:Datum:Temp:Feuchte:
G-T/H 351 31-03-2020 11:20:18 8.4 C 64 %
352 31-03-2020 11:30:18 8.4 C 64 %
353 31-03-2020 11:40:18 8.4 C 64 %
354 31-03-2020 11:50:17 8.4 C 64 %
355 31-03-2020 12:00:18 8.4 C 64 %
356 31-03-2020 12:10:18 8.4 C 64 %
357 31-03-2020 12:20:17 8.4 C 64 %
358 31-03-2020 12:30:18 8.4 C 64 %
359 31-03-2020 12:40:18 8.5 C 64 %
360 31-03-2020 12:50:18 8.5 C 64 %
361 31-03-2020 13:00:17 8.5 C 64 %
362 31-03-2020 13:10:17 8.5 C 64 %
363 31-03-2020 13:20:17 8.5 C 63 %
364 31-03-2020 13:30:17 8.5 C 63 %
365 31-03-2020 13:40:17 8.4 C 63 %
366 31-03-2020 13:51:17 8.5 C 63 %
367 31-03-2020 14:00:17 8.5 C 63 %
368 31-03-2020 14:10:17 8.5 C 63 %
369 31-03-2020 14:20:17 8.5 C 63 %
370 31-03-2020 14:30:17 8.5 C 63 %
371 31-03-2020 14:40:17 8.5 C 63 %
372 31-03-2020 14:51:17 8.6 C 63 %
373 31-03-2020 15:00:17 8.6 C 63 %
374 31-03-2020 15:10:18 8.6 C 63 %
375 31-03-2020 15:20:17 8.6 C 63 %
Sensor: Nr:Datum:Temp:Feuchte:
G-T/H 376 31-03-2020 15:30:17 8.6 C 63 %
377 31-03-2020 15:40:17 8.6 C 63 %
378 31-03-2020 15:50:18 8.6 C 63 %
379 31-03-2020 16:00:17 8.6 C 63 %
380 31-03-2020 16:10:17 8.6 C 63 %
381 31-03-2020 16:20:17 8.6 C 63 %
382 31-03-2020 16:31:17 8.7 C 63 %
383 31-03-2020 16:40:17 8.7 C 63 %
384 31-03-2020 16:50:17 8.7 C 63 %
385 31-03-2020 17:00:17 8.7 C 63 %
386 31-03-2020 17:10:17 8.7 C 63 %
387 31-03-2020 17:21:17 8.7 C 63 %
388 31-03-2020 17:31:17 8.8 C 63 %
389 31-03-2020 17:40:17 8.8 C 63 %
390 31-03-2020 17:51:17 8.8 C 62 %
391 31-03-2020 18:01:17 8.8 C 59 %
392 31-03-2020 18:11:17 8.8 C 56 %
393 31-03-2020 18:21:17 8.8 C 56 %
394 31-03-2020 18:31:17 8.8 C 56 %
395 31-03-2020 18:40:17 8.8 C 56 %
396 31-03-2020 18:51:17 8.8 C 57 %
397 31-03-2020 19:00:17 8.8 C 58 %
398 31-03-2020 19:10:17 8.9 C 58 %
399 31-03-2020 19:20:17 8.8 C 58 %
400 31-03-2020 19:31:17 8.9 C 59 %
Sensor: Nr:Datum:Temp:Feuchte:
G-T/H 401 31-03-2020 19:41:17 8.9 C 59 %
402 31-03-2020 19:50:17 8.9 C 59 %
403 31-03-2020 20:01:17 8.9 C 60 %
404 31-03-2020 20:11:17 8.9 C 60 %
405 31-03-2020 20:21:17 8.9 C 60 %
406 31-03-2020 20:31:17 8.9 C 61 %
407 31-03-2020 20:41:17 8.9 C 61 %
408 31-03-2020 20:51:17 8.9 C 61 %
409 31-03-2020 21:00:17 8.9 C 61 %
410 31-03-2020 21:10:18 8.9 C 61 %
411 31-03-2020 21:21:17 8.8 C 61 %
412 31-03-2020 21:31:17 8.9 C 61 %
413 31-03-2020 21:41:17 8.9 C 62 %
414 31-03-2020 21:51:17 8.9 C 62 %
415 31-03-2020 22:00:18 8.9 C 62 %
416 31-03-2020 22:10:18 8.8 C 62 %
417 31-03-2020 22:21:17 8.8 C 62 %
418 31-03-2020 22:31:17 8.8 C 62 %
419 31-03-2020 22:41:17 8.8 C 62 %
420 31-03-2020 22:50:18 8.8 C 62 %
421 31-03-2020 23:01:17 8.8 C 62 %
422 31-03-2020 23:11:17 8.8 C 62 %
423 31-03-2020 23:21:17 8.8 C 62 %
424 31-03-2020 23:30:17 8.8 C 62 %
425 31-03-2020 23:40:18 8.8 C 62 %
Sensor: Nr:Datum:Temp:Feuchte:
G-T/H 426 31-03-2020 23:51:17 8.8 C 62 %
427 01-04-2020 00:01:17 8.8 C 62 %
428 01-04-2020 00:11:17 8.8 C 62 %
429 01-04-2020 00:21:17 8.8 C 62 %
430 01-04-2020 00:31:17 8.7 C 62 %
431 01-04-2020 00:41:17 8.7 C 62 %
432 01-04-2020 00:51:17 8.7 C 62 %
433 01-04-2020 01:01:17 8.7 C 62 %
434 01-04-2020 01:11:17 8.7 C 62 %
435 01-04-2020 01:21:17 8.7 C 62 %
436 01-04-2020 01:30:18 8.7 C 62 %
437 01-04-2020 01:40:18 8.7 C 62 %
438 01-04-2020 01:51:17 8.6 C 62 %
439 01-04-2020 02:01:17 8.6 C 62 %
440 01-04-2020 02:11:17 8.6 C 62 %
441 01-04-2020 02:21:17 8.6 C 62 %
442 01-04-2020 02:31:17 8.6 C 62 %
443 01-04-2020 02:41:17 8.6 C 62 %
444 01-04-2020 02:50:18 8.6 C 62 %
445 01-04-2020 03:01:17 8.5 C 62 %
446 01-04-2020 03:11:17 8.5 C 62 %
447 01-04-2020 03:21:17 8.5 C 62 %
448 01-04-2020 03:31:17 8.5 C 62 %
449 01-04-2020 03:41:18 8.5 C 62 %
450 01-04-2020 03:51:17 8.5 C 62 %
Sensor: Nr:Datum:Temp:Feuchte:
G-T/H 451 01-04-2020 04:01:17 8.5 C 62 %
452 01-04-2020 04:11:17 8.4 C 62 %
453 01-04-2020 04:21:17 8.4 C 62 %
454 01-04-2020 04:31:18 8.4 C 62 %
455 01-04-2020 04:41:19 8.4 C 62 %
456 01-04-2020 04:51:17 8.4 C 62 %
457 01-04-2020 05:01:18 8.3 C 61 %
458 01-04-2020 05:11:19 8.3 C 61 %
459 01-04-2020 05:21:17 8.3 C 61 %
460 01-04-2020 05:31:18 8.3 C 61 %
461 01-04-2020 05:41:18 8.3 C 61 %
462 01-04-2020 05:51:17 8.2 C 61 %
463 01-04-2020 06:01:18 8.2 C 61 %
464 01-04-2020 06:11:18 8.2 C 61 %
465 01-04-2020 06:21:17 8.2 C 61 %
466 01-04-2020 06:31:17 8.1 C 61 %
467 01-04-2020 06:41:17 8.1 C 61 %
468 01-04-2020 06:51:17 8.1 C 61 %
469 01-04-2020 07:01:18 8.1 C 61 %
470 01-04-2020 07:11:19 8.1 C 61 %
471 01-04-2020 07:21:17 8.1 C 61 %
472 01-04-2020 07:31:18 8 C 61 %
473 01-04-2020 07:41:18 8 C 61 %
474 01-04-2020 07:51:17 8 C 61 %
475 01-04-2020 08:01:17 8 C 61 %
Sensor: Nr:Datum:Temp:Feuchte:
G-T/H 476 01-04-2020 08:11:17 8 C 61 %
477 01-04-2020 08:21:17 7.9 C 62 %
478 01-04-2020 08:31:17 7.9 C 62 %
479 01-04-2020 08:41:17 7.9 C 62 %
480 01-04-2020 08:51:17 7.9 C 62 %
481 01-04-2020 09:01:17 7.9 C 62 %
482 01-04-2020 09:11:17 7.9 C 62 %
483 01-04-2020 09:21:17 7.9 C 62 %
484 01-04-2020 09:31:17 7.8 C 62 %
485 01-04-2020 09:41:17 7.8 C 62 %
486 01-04-2020 09:51:17 7.8 C 62 %
487 01-04-2020 10:01:17 7.8 C 62 %
488 01-04-2020 10:11:17 7.8 C 62 %
489 01-04-2020 10:21:17 7.8 C 62 %
490 01-04-2020 10:31:18 7.8 C 62 %
491 01-04-2020 10:41:18 7.8 C 62 %
492 01-04-2020 10:51:17 7.8 C 62 %
493 01-04-2020 11:01:17 7.7 C 62 %
494 01-04-2020 11:11:17 7.8 C 62 %
495 01-04-2020 11:21:17 7.8 C 62 %
496 01-04-2020 11:31:17 7.7 C 62 %
497 01-04-2020 11:41:17 7.7 C 63 %
498 01-04-2020 11:51:17 7.8 C 63 %
499 01-04-2020 12:01:17 7.7 C 63 %
500 01-04-2020 12:11:18 7.8 C 63 %
Sensor: Nr:Datum:Temp:Feuchte:
G-T/H 501 01-04-2020 12:21:17 7.8 C 63 %
502 01-04-2020 12:31:17 7.8 C 63 %
503 01-04-2020 12:41:17 7.7 C 63 %
504 01-04-2020 12:51:17 7.7 C 63 %
505 01-04-2020 13:01:17 7.7 C 63 %
506 01-04-2020 13:11:17 7.8 C 63 %
507 01-04-2020 13:21:16 7.8 C 64 %
508 01-04-2020 13:31:17 7.8 C 64 %
509 01-04-2020 13:41:17 7.8 C 64 %
510 01-04-2020 13:51:17 7.8 C 64 %
511 01-04-2020 14:01:17 7.8 C 64 %
512 01-04-2020 14:11:17 7.9 C 64 %
513 01-04-2020 14:21:17 7.9 C 64 %
514 01-04-2020 14:31:16 7.9 C 64 %
515 01-04-2020 14:41:16 7.9 C 64 %
516 01-04-2020 14:51:17 7.9 C 64 %
517 01-04-2020 15:01:17 7.9 C 64 %
518 01-04-2020 15:11:17 8 C 63 %
519 01-04-2020 15:21:17 8 C 62 %
520 01-04-2020 15:31:16 8 C 62 %
521 01-04-2020 15:41:16 8 C 62 %
522 01-04-2020 15:51:17 8 C 62 %
523 01-04-2020 16:01:16 8.1 C 63 %
524 01-04-2020 16:11:16 8 C 63 %
525 01-04-2020 16:21:16 8.1 C 63 %
Sensor: Nr:Datum:Temp:Feuchte:
G-T/H 526 01-04-2020 16:31:17 8.1 C 63 %
527 01-04-2020 16:41:17 8.1 C 63 %
528 01-04-2020 16:51:16 8.1 C 63 %
529 01-04-2020 17:01:16 8.1 C 63 %
530 01-04-2020 17:11:16 8.2 C 63 %
531 01-04-2020 17:21:17 8.2 C 63 %
532 01-04-2020 17:31:17 8.2 C 63 %
533 01-04-2020 17:41:17 8.2 C 63 %
534 01-04-2020 17:51:17 8.2 C 63 %
535 01-04-2020 18:01:17 8.2 C 63 %
536 01-04-2020 18:11:17 8.2 C 63 %
537 01-04-2020 18:21:16 8.2 C 63 %
538 01-04-2020 18:31:17 8.3 C 63 %
539 01-04-2020 18:41:17 8.3 C 63 %
540 01-04-2020 18:51:16 8.3 C 63 %
541 01-04-2020 19:01:17 8.3 C 63 %
542 01-04-2020 19:11:17 8.4 C 63 %
543 01-04-2020 19:21:17 8.4 C 64 %
544 01-04-2020 19:31:17 8.4 C 64 %
545 01-04-2020 19:41:17 8.4 C 64 %
546 01-04-2020 19:51:16 8.4 C 64 %
547 01-04-2020 20:01:17 8.4 C 64 %
548 01-04-2020 20:11:17 8.4 C 64 %
549 01-04-2020 20:21:16 8.4 C 64 %
550 01-04-2020 20:31:16 8.5 C 64 %
Sensor: Nr:Datum:Temp:Feuchte:
G-T/H 551 01-04-2020 20:41:16 8.5 C 64 %
552 01-04-2020 20:51:16 8.5 C 64 %
553 01-04-2020 21:01:16 8.5 C 64 %
554 01-04-2020 21:11:16 8.5 C 64 %
555 01-04-2020 21:21:16 8.5 C 64 %
556 01-04-2020 21:31:16 8.5 C 64 %
557 01-04-2020 21:41:16 8.4 C 64 %
558 01-04-2020 21:51:16 8.5 C 64 %
559 01-04-2020 22:01:16 8.5 C 64 %
560 01-04-2020 22:11:16 8.5 C 64 %
561 01-04-2020 22:21:16 8.5 C 64 %
562 01-04-2020 22:31:16 8.5 C 64 %
563 01-04-2020 22:41:16 8.5 C 64 %
564 01-04-2020 22:51:16 8.5 C 64 %
565 01-04-2020 23:01:17 8.5 C 64 %
566 01-04-2020 23:11:17 8.5 C 64 %
567 01-04-2020 23:21:16 8.5 C 64 %
568 01-04-2020 23:31:16 8.4 C 64 %
569 01-04-2020 23:41:16 8.5 C 64 %
570 01-04-2020 23:51:16 8.5 C 64 %
571 02-04-2020 00:01:17 8.5 C 64 %
572 02-04-2020 00:11:17 8.5 C 64 %
573 02-04-2020 00:21:16 8.4 C 64 %
574 02-04-2020 00:31:17 8.4 C 64 %
575 02-04-2020 00:41:17 8.4 C 64 %
Sensor: Nr:Datum:Temp:Feuchte:
G-T/H 576 02-04-2020 00:51:16 8.4 C 64 %
577 02-04-2020 01:01:17 8.4 C 64 %
578 02-04-2020 01:11:17 8.4 C 64 %
579 02-04-2020 01:21:16 8.4 C 64 %
580 02-04-2020 01:31:17 8.4 C 64 %
581 02-04-2020 01:41:17 8.4 C 64 %
582 02-04-2020 01:51:16 8.4 C 64 %
583 02-04-2020 02:01:16 8.4 C 64 %
584 02-04-2020 02:11:16 8.4 C 64 %
585 02-04-2020 02:21:16 8.4 C 64 %
586 02-04-2020 02:31:17 8.3 C 64 %
587 02-04-2020 02:41:17 8.3 C 64 %
588 02-04-2020 02:51:17 8.3 C 63 %
589 02-04-2020 03:01:17 8.3 C 63 %
590 02-04-2020 03:11:17 8.3 C 63 %
591 02-04-2020 03:21:17 8.3 C 63 %
592 02-04-2020 03:31:17 8.3 C 63 %
593 02-04-2020 03:41:17 8.2 C 63 %
594 02-04-2020 03:51:18 8.2 C 63 %
595 02-04-2020 04:01:18 8.2 C 63 %
596 02-04-2020 04:11:18 8.2 C 63 %
597 02-04-2020 04:21:18 8.2 C 63 %
598 02-04-2020 04:31:17 8.2 C 63 %
599 02-04-2020 04:41:17 8.2 C 63 %
600 02-04-2020 04:51:17 8.2 C 63 %
Sensor: Nr:Datum:Temp:Feuchte:
G-T/H 601 02-04-2020 05:01:18 8.2 C 63 %
602 02-04-2020 05:11:18 8.1 C 63 %
603 02-04-2020 05:21:17 8.1 C 63 %
604 02-04-2020 05:31:18 8.1 C 63 %
605 02-04-2020 05:41:18 8.1 C 63 %
606 02-04-2020 05:51:17 8.1 C 63 %
607 02-04-2020 06:01:17 8.1 C 63 %
608 02-04-2020 06:11:17 8 C 63 %
609 02-04-2020 06:21:17 8 C 63 %
610 02-04-2020 06:31:17 8 C 63 %
611 02-04-2020 06:41:17 8 C 63 %
612 02-04-2020 06:51:17 8 C 62 %
613 02-04-2020 07:01:17 8 C 62 %
614 02-04-2020 07:11:17 8 C 62 %
615 02-04-2020 07:21:17 7.9 C 63 %
616 02-04-2020 07:31:17 7.9 C 63 %
617 02-04-2020 07:41:18 7.9 C 63 %
618 02-04-2020 07:51:17 7.9 C 63 %
619 02-04-2020 08:01:17 7.9 C 63 %
620 02-04-2020 08:11:18 7.9 C 63 %
621 02-04-2020 08:21:17 7.8 C 63 %
622 02-04-2020 08:31:17 7.9 C 63 %
623 02-04-2020 08:41:17 7.8 C 63 %
624 02-04-2020 08:51:17 7.8 C 63 %
625 02-04-2020 09:01:17 7.8 C 63 %
Sensor: Nr:Datum:Temp:Feuchte:
G-T/H 626 02-04-2020 09:11:17 7.8 C 63 %
627 02-04-2020 09:21:17 7.8 C 63 %
628 02-04-2020 09:31:17 7.8 C 63 %
629 02-04-2020 09:41:17 7.8 C 63 %
630 02-04-2020 09:51:18 7.8 C 63 %
631 02-04-2020 10:01:18 7.7 C 63 %
632 02-04-2020 10:11:18 7.7 C 63 %
633 02-04-2020 10:21:17 7.7 C 63 %
634 02-04-2020 10:31:17 7.7 C 63 %
635 02-04-2020 10:41:17 7.7 C 63 %
636 02-04-2020 10:51:17 7.6 C 64 %
637 02-04-2020 11:01:17 7.6 C 64 %
638 02-04-2020 11:11:17 7.7 C 64 %
639 02-04-2020 11:21:17 7.7 C 64 %
640 02-04-2020 11:31:18 7.6 C 64 %
641 02-04-2020 11:41:18 7.7 C 64 %
642 02-04-2020 11:51:17 7.7 C 64 %
643 02-04-2020 12:01:17 7.7 C 64 %
644 02-04-2020 12:11:17 7.7 C 65 %
645 02-04-2020 12:21:17 7.7 C 65 %
646 02-04-2020 12:31:18 7.7 C 65 %
647 02-04-2020 12:41:18 7.7 C 65 %
648 02-04-2020 12:51:17 7.8 C 65 %
649 02-04-2020 13:01:17 7.8 C 65 %
650 02-04-2020 13:11:18 7.8 C 65 %
Sensor: Nr:Datum:Temp:Feuchte:
G-T/H 651 02-04-2020 13:21:17 7.8 C 65 %
652 02-04-2020 13:31:17 7.8 C 65 %
653 02-04-2020 13:41:17 7.8 C 65 %
654 02-04-2020 13:51:17 7.8 C 65 %
655 02-04-2020 14:01:17 7.9 C 65 %
656 02-04-2020 14:11:17 7.9 C 65 %
657 02-04-2020 14:21:17 7.9 C 65 %
658 02-04-2020 14:31:18 8 C 65 %
659 02-04-2020 14:41:18 7.9 C 66 %
660 02-04-2020 14:51:17 8 C 65 %
661 02-04-2020 15:01:18 8 C 65 %
662 02-04-2020 15:11:18 8 C 65 %
663 02-04-2020 15:21:17 8 C 65 %
664 02-04-2020 15:31:18 8.1 C 65 %
665 02-04-2020 15:41:18 8.1 C 65 %
666 02-04-2020 15:51:17 8.1 C 65 %
667 02-04-2020 16:01:17 8.1 C 65 %
668 02-04-2020 16:11:17 8.1 C 65 %
669 02-04-2020 16:21:17 8.1 C 65 %
670 02-04-2020 16:31:18 8.2 C 65 %
671 02-04-2020 16:41:18 8.2 C 65 %
672 02-04-2020 16:51:17 8.2 C 65 %
673 02-04-2020 17:01:17 8.3 C 65 %
674 02-04-2020 17:11:17 8.3 C 65 %
675 02-04-2020 17:21:17 8.3 C 65 %
Sensor: Nr:Datum:Temp:Feuchte:
G-T/H 676 02-04-2020 17:31:18 8.3 C 65 %
677 02-04-2020 17:41:18 8.3 C 65 %
678 02-04-2020 17:51:17 8.4 C 65 %
679 02-04-2020 18:01:17 8.4 C 65 %
680 02-04-2020 18:11:17 8.4 C 65 %
681 02-04-2020 18:21:17 8.4 C 65 %
682 02-04-2020 18:31:17 8.4 C 65 %
683 02-04-2020 18:41:17 8.5 C 65 %
684 02-04-2020 18:51:17 8.5 C 65 %
685 02-04-2020 19:01:17 8.5 C 65 %
686 02-04-2020 19:11:17 8.5 C 65 %
687 02-04-2020 19:21:17 8.6 C 65 %
688 02-04-2020 19:31:17 8.6 C 66 %
689 02-04-2020 19:41:17 8.6 C 66 %
690 02-04-2020 19:51:17 8.6 C 66 %
691 02-04-2020 20:01:17 8.6 C 66 %
692 02-04-2020 20:11:17 8.6 C 66 %
693 02-04-2020 20:21:17 8.6 C 66 %
694 02-04-2020 20:31:17 8.6 C 66 %
695 02-04-2020 20:41:17 8.6 C 66 %
696 02-04-2020 20:51:17 8.6 C 66 %
697 02-04-2020 21:01:17 8.6 C 66 %
698 02-04-2020 21:11:17 8.7 C 66 %
699 02-04-2020 21:21:17 8.7 C 66 %
700 02-04-2020 21:31:18 8.7 C 66 %
Sensor: Nr:Datum:Temp:Feuchte:
G-T/H 701 02-04-2020 21:41:18 8.7 C 66 %
702 02-04-2020 21:51:17 8.7 C 66 %
703 02-04-2020 22:01:17 8.7 C 66 %
704 02-04-2020 22:11:17 8.7 C 67 %
705 02-04-2020 22:21:17 8.7 C 67 %
706 02-04-2020 22:31:18 8.7 C 67 %
707 02-04-2020 22:41:18 8.7 C 67 %
708 02-04-2020 22:51:17 8.7 C 67 %
709 02-04-2020 23:01:17 8.7 C 67 %
710 02-04-2020 23:11:17 8.7 C 67 %
711 02-04-2020 23:21:17 8.7 C 67 %
712 02-04-2020 23:31:18 8.7 C 67 %
713 02-04-2020 23:41:18 8.7 C 67 %
714 02-04-2020 23:51:17 8.7 C 67 %

Legende:
   Min
   Max


Maximal/Minimal-Werte vom 29.03.2020 - 02.04.2020

Sensor Min Max Avg
Temp
(Aussen-T/F)
-4.7 °C
01-04-2020  07:11:19
21.3 °C
01-04-2020  16:31:17
4.64 °C
Feuchte
(Aussen-T/F)
20 %
29-03-2020  13:30:17
45 %
31-03-2020  06:10:18
30.22 %
Temp
(G-T/H)
7.6 °C
02-04-2020  10:51:17
10.9 °C
29-03-2020  00:00:18
8.74 °C
Feuchte
(G-T/H)
50 %
30-03-2020  13:30:17
67 %
02-04-2020  22:11:17
62 %

Die Daten stammen von einer Davis Vantage Pro 2 Wetter-Station und werden unter Linux mit der Software wview2wettercgi und aufbereitet. Alle Angaben erfolgen ohne Gewähr für ihre Vollständigkeit oder Richtigkeit.
Kontakt: Rainer Krienke krienke@uni-koblenz.de . Meine Webseiten an der Uni Koblenz oder privat.
Version: $Revision: 0.78 $